Brookings, OR

6:55 AM PST on January 22, 2018 (GMT -0800)
Brookings State

Weather History for KBOK - September, 2013

Change the Weather History Date:

Thursday, September 12, 2013

  Actual Average Record
Temperature  
Mean Temperature 60 °F -  
Max Temperature 63 °F 69 °F 95 °F (1951)
Min Temperature 56 °F 51 °F 44 °F (1989)
Degree Days  
Heating Degree Days 5    
Growing Degree Days 10 (Base 50)    
Moisture  
Dew Point 57 °F    
Average Humidity 95    
Maximum Humidity 100    
Minimum Humidity 78    
Precipitation  
Precipitation 0.00 in - - ()
Sea Level Pressure  
Sea Level Pressure 30.00 in    
Wind  
Wind Speed 2 mph (West)    
Max Wind Speed 9 mph    
Max Gust Speed -    
Visibility 5 miles    
Events Fog    
Averages and records for this station are not official NWS values.
T = Trace of Precipitation, MM = Missing Value Source: NWS Daily Summary

Daily Weather History Graph

Daily Weather History Graph

Search for Another Location

Airport or City:

Trip Planner

Search our weather history database for the weather conditions in past years. The results will help you decide how hot, cold, wet, or windy it might be!

Date:

Astronomy

Sep. 12, 2013 Rise Set
Actual Time 6:54 AM PDT 7:31 PM PDT
Civil Twilight 6:26 AM PDT 7:59 PM PDT
Nautical Twilight 5:52 AM PDT 8:32 PM PDT
Astronomical Twilight 5:18 AM PDT 9:06 PM PDT
Moon 2:34 PM PDT (9/12) No Moon Set
Length of Visible Light 13h 33m
Length of Day
12h 36m
Waxing Crescent, 51% of the Moon is Illuminated
Sep 12
Waxing Crescent
Sep 19
Full
Sep 26
Last Quarter
Oct 4
New
Oct 11
First Quarter

Hourly Weather History & Observations

Time (PDT) Temp. Dew Point Humidity Pressure Visibility Wind Dir Wind Speed Gust Speed Precip Events Conditions
12:05 AM 60.8 °F 57.2 °F 88% 30.01 in 9.0 mi Calm Calm - N/A   Overcast
12:56 AM 61.0 °F 57.9 °F 90% 30.02 in 10.0 mi Calm Calm - N/A   Overcast
1:56 AM 59.9 °F 57.9 °F 93% 30.01 in 10.0 mi Calm Calm - N/A   Overcast
2:56 AM 59.9 °F 57.9 °F 93% 30.01 in 10.0 mi West 3.5 mph - N/A   Overcast
3:56 AM 59.9 °F 57.9 °F 93% 30.01 in 9.0 mi NNW 3.5 mph - 0.00 in   Overcast
4:56 AM 59.0 °F 57.9 °F 96% 30.01 in 6.0 mi Calm Calm - N/A   Overcast
5:56 AM 59.0 °F 56.8 °F 93% 30.00 in 10.0 mi Calm Calm - N/A   Overcast
6:56 AM 59.0 °F 56.8 °F 93% 30.00 in 10.0 mi NW 3.5 mph - N/A   Overcast
7:56 AM 59.0 °F 55.9 °F 90% 30.01 in 10.0 mi Calm Calm - N/A   Overcast
8:56 AM 59.0 °F 56.8 °F 93% 30.01 in 10.0 mi West 3.5 mph - N/A   Overcast
9:56 AM 59.9 °F 57.9 °F 93% 30.02 in 6.0 mi WSW 3.5 mph - N/A   Overcast
10:08 AM 59.0 °F 57.2 °F 94% 30.02 in 4.0 mi WSW 3.5 mph - N/A   Overcast
10:56 AM 59.9 °F 57.9 °F 93% 30.01 in 6.0 mi SW 4.6 mph - N/A   Overcast
11:56 AM 59.9 °F 57.9 °F 93% 30.01 in 4.0 mi WNW 5.8 mph - N/A   Overcast
12:56 PM 59.9 °F 57.9 °F 93% 30.01 in 8.0 mi NW 9.2 mph - N/A   Overcast
1:56 PM 61.0 °F 56.8 °F 86% 30.02 in 6.0 mi WNW 6.9 mph - N/A   Overcast
2:23 PM 62.6 °F 57.2 °F 82% 30.01 in 9.0 mi WNW 8.1 mph - N/A   Overcast
2:56 PM 63.9 °F 56.8 °F 78% 30.01 in 10.0 mi WNW 6.9 mph - N/A   Overcast
3:56 PM 61.0 °F 56.8 °F 86% 30.01 in 10.0 mi Variable 5.8 mph - N/A   Overcast
4:45 PM 60.8 °F 57.2 °F 88% 30.01 in 8.0 mi West 6.9 mph - N/A   Overcast
4:56 PM 59.9 °F 56.8 °F 90% 30.01 in 8.0 mi Variable 4.6 mph - N/A   Overcast
5:03 PM 60.8 °F 57.2 °F 88% 30.00 in 8.0 mi West 4.6 mph - N/A   Overcast
5:10 PM 60.8 °F 57.2 °F 88% 30.00 in 8.0 mi West 5.8 mph - N/A   Overcast
5:56 PM 59.9 °F 56.8 °F 90% 30.00 in 8.0 mi WSW 3.5 mph - N/A   Overcast
6:30 PM 59.0 °F 57.2 °F 94% 29.99 in 6.0 mi Variable 3.5 mph - N/A   Overcast
6:56 PM 57.9 °F 56.8 °F 96% 30.00 in 0.8 mi SSE 4.6 mph - N/A   Overcast
7:24 PM 57.2 °F 57.2 °F 100% 29.99 in 1.0 mi Calm Calm - N/A   Overcast
7:34 PM 57.2 °F 57.2 °F 100% 29.99 in 0.5 mi Calm Calm - N/A Fog Fog
7:43 PM 57.2 °F 57.2 °F 100% 29.99 in 0.2 mi South 3.5 mph - N/A Fog Fog
7:56 PM 57.9 °F 56.8 °F 96% 29.99 in 0.5 mi Calm Calm - N/A Fog Fog
8:00 PM 57.2 °F 57.2 °F 100% 29.98 in 1.0 mi Calm Calm - N/A   Overcast
8:02 PM 57.2 °F 57.2 °F 100% 29.98 in 1.5 mi Calm Calm - N/A   Overcast
8:04 PM 57.2 °F 57.2 °F 100% 29.98 in 3.0 mi Calm Calm - N/A   Overcast
8:27 PM 57.2 °F 57.2 °F 100% 29.99 in 2.0 mi Calm Calm - N/A   Overcast
8:39 PM 57.2 °F 57.2 °F 100% 29.99 in 7.0 mi Calm Calm - N/A   Overcast
8:56 PM 57.9 °F 56.8 °F 96% 29.99 in 2.5 mi Calm Calm - N/A   Overcast
9:10 PM 57.2 °F 57.2 °F 100% 29.99 in 4.0 mi Calm Calm - N/A   Overcast
9:31 PM 57.2 °F 57.2 °F 100% 29.99 in 2.5 mi Calm Calm - N/A   Overcast
9:38 PM 57.2 °F 57.2 °F 100% 29.99 in 5.0 mi Calm Calm - N/A   Overcast
9:56 PM 57.9 °F 56.8 °F 96% 30.00 in 4.0 mi Calm Calm - N/A   Overcast
10:14 PM 57.2 °F 57.2 °F 100% 29.99 in 1.8 mi Calm Calm - N/A   Overcast
10:31 PM 57.2 °F 57.2 °F 100% 29.99 in 2.0 mi Calm Calm - N/A   Overcast
10:37 PM 57.2 °F 57.2 °F 100% 29.99 in 1.2 mi Calm Calm - N/A   Overcast
10:45 PM 57.2 °F 57.2 °F 100% 29.99 in 2.0 mi Calm Calm - N/A   Overcast
10:56 PM 57.9 °F 56.8 °F 96% 29.99 in 1.2 mi Calm Calm - N/A   Overcast
11:08 PM 57.2 °F 57.2 °F 100% 29.99 in 1.8 mi Calm Calm - N/A   Overcast
11:18 PM 57.2 °F 57.2 °F 100% 29.99 in 1.0 mi West 3.5 mph - N/A   Overcast
11:41 PM 57.2 °F 57.2 °F 100% 29.99 in 1.5 mi Calm Calm - N/A   Overcast
11:56 PM 56.8 °F 56.8 °F 100% 30.00 in 0.5 mi Calm Calm - N/A Fog Fog